EW3814 Weather Reports


Display with metric or nautical units.
time (UTC)temp
F
wind
direction
speed
MPH
gust
MPH
rain 1hr
in
rain 24hr
in
rain mn
in
humidity
%
barometer
mb
20181219013518 42 18 0.0 0.0 0.00 0.00 0.00 60 1020.1
20181219013017 42 18 0.0 0.0 0.00 0.00 0.00 59 1020.0
20181219012518 42 18 0.0 0.0 0.00 0.00 0.00 58 1020.0
20181219012017 42 18 0.0 0.0 0.00 0.00 0.00 57 1019.9
20181219011517 43 18 0.0 0.0 0.00 0.00 0.00 57 1019.8
20181219011014 43 18 0.0 0.0 0.00 0.00 0.00 58 1019.7
20181219010515 43 18 0.0 0.0 0.00 0.00 0.00 57 1019.6
20181219010016 44 18 0.0 0.0 0.00 0.00 0.00 57 1019.6
20181219005514 44 18 0.0 0.0 0.00 0.00 0.00 55 1019.7
20181219005015 44 18 0.0 0.0 0.00 0.00 0.00 54 1019.7
20181219004515 45 18 0.0 0.0 0.00 0.00 0.00 54 1019.5
20181219004014 45 18 0.0 0.0 0.00 0.00 0.00 53 1019.4
20181219003515 45 18 0.0 0.0 0.00 0.00 0.00 53 1019.3
20181219003016 45 18 0.0 0.0 0.00 0.00 0.00 52 1019.1
20181219002516 46 18 0.0 0.0 0.00 0.00 0.00 51 1019.1
20181219002014 46 18 0.0 0.0 0.00 0.00 0.00 51 1019.1
20181219001516 46 18 0.0 0.0 0.00 0.00 0.00 51 1019.1
20181219001013 46 18 0.0 0.0 0.00 0.00 0.00 50 1019.1
20181219000512 47 18 0.0 0.0 0.00 0.00 0.00 49 1019.1
20181219000014 47 18 0.0 0.0 0.00 0.00 0.00 49 1019.0
20181218235513 47 18 0.0 0.0 0.00 0.00 0.00 48 1019.0
20181218235010 47 18 0.0 0.0 0.00 0.00 0.00 48 1019.0
20181218234509 47 18 0.0 0.0 0.00 0.00 0.00 48 1019.0
20181218234008 48 18 0.0 0.0 0.00 0.00 0.00 48 1019.0
20181218233508 48 18 0.0 0.0 0.00 0.00 0.00 47 1019.0
20181218233010 48 18 0.0 0.0 0.00 0.00 0.00 46 1019.0
20181218232509 48 18 0.0 0.0 0.00 0.00 0.00 45 1018.9
20181218232009 49 18 0.0 0.0 0.00 0.00 0.00 45 1018.8
20181218231510 49 18 0.0 0.0 0.00 0.00 0.00 45 1018.6
20181218231008 49 18 0.0 0.0 0.00 0.00 0.00 46 1018.6
20181218230509 49 18 0.0 0.0 0.00 0.00 0.00 45 1018.6
20181218230008 49 18 0.0 0.0 0.00 0.00 0.00 46 1018.5
20181218225507 49 18 0.0 0.0 0.00 0.00 0.00 44 1018.7
20181218225004 50 18 0.0 0.0 0.00 0.00 0.00 44 1018.6
20181218224505 50 18 0.0 0.0 0.00 0.00 0.00 43 1018.6
20181218224005 50 18 0.0 0.0 0.00 0.00 0.00 43 1018.6
20181218223506 50 18 0.0 0.0 0.00 0.00 0.00 44 1018.7
20181218223006 51 18 0.0 0.0 0.00 0.00 0.00 41 1018.8
20181218222506 51 18 0.0 0.0 0.00 0.00 0.00 41 1018.6
20181218222004 51 18 0.0 0.0 0.00 0.00 0.00 40 1018.6
20181218221504 52 18 0.0 0.0 0.00 0.00 0.00 40 1018.6
20181218221006 52 18 0.0 0.0 0.00 0.00 0.00 39 1018.6
20181218220504 52 18 0.0 0.0 0.00 0.00 0.00 38 1018.7
20181218220004 52 18 0.0 0.0 0.00 0.00 0.00 38 1018.7
20181218215502 52 18 0.0 0.0 0.00 0.00 0.00 37 1018.6
20181218215003 53 18 0.0 0.0 0.00 0.00 0.00 37 1018.6
20181218214503 53 18 0.0 0.0 0.00 0.00 0.00 37 1018.6
20181218214002 53 18 0.0 0.0 0.00 0.00 0.00 36 1018.6
20181218213502 53 18 0.0 0.0 0.00 0.00 0.00 36 1018.6
20181218213002 53 18 0.0 0.0 0.00 0.00 0.00 36 1018.6
20181218212502 53 18 0.0 0.0 0.00 0.00 0.00 36 1018.6
20181218212003 54 18 0.0 0.0 0.00 0.00 0.00 34 1018.6
20181218211503 54 18 0.0 0.0 0.00 0.00 0.00 34 1018.5
20181218211001 54 18 0.0 0.0 0.00 0.00 0.00 34 1018.6
20181218210500 54 329 0.0 0.0 0.00 0.00 0.00 34 1018.6
20181218210000 54 287 0.0 0.0 0.00 0.00 0.00 35 1018.5
20181218205501 54 206 0.0 0.0 0.00 0.00 0.00 36 1018.5
20181218205000 54 204 0.0 0.0 0.00 0.00 0.00 34 1018.5
20181218204500 54 201 0.0 0.0 0.00 0.00 0.00 34 1018.5
20181218204001 54 84 0.0 0.0 0.00 0.00 0.00 34 1018.5
20181218203500 54 84 0.0 0.0 0.00 0.00 0.00 32 1018.5
20181218203001 54 338 0.0 0.0 0.00 0.00 0.00 31 1018.5
20181218202501 54 2 0.0 0.0 0.00 0.00 0.00 31 1018.4
20181218202001 54 70 0.0 0.0 0.00 0.00 0.00 33 1018.4
20181218201502 54 80 0.0 0.0 0.00 0.00 0.00 32 1018.5
20181218200959 54 83 0.0 0.0 0.00 0.00 0.00 31 1018.5
20181218200501 54 343 0.0 0.0 0.00 0.00 0.00 34 1018.6
20181218200000 55 310 0.0 0.0 0.00 0.00 0.00 31 1018.5
20181218195500 55 99 0.0 0.0 0.00 0.00 0.00 32 1018.5
20181218195000 55 74 0.0 0.0 0.00 0.00 0.00 34 1018.5
20181218194500 55 281 0.0 0.0 0.00 0.00 0.00 32 1018.5
20181218194000 55 304 0.0 0.0 0.00 0.00 0.00 33 1018.5
20181218193500 55 162 0.0 0.0 0.00 0.00 0.00 33 1018.6
20181218192959 55 163 0.0 0.0 0.00 0.00 0.00 29 1018.6
20181218192500 54 160 0.0 0.0 0.00 0.00 0.00 29 1018.7
20181218192001 55 190 0.0 0.0 0.00 0.00 0.00 28 1018.7
20181218191459 55 154 0.0 0.0 0.00 0.00 0.00 28 1018.7
20181218191000 55 181 0.0 0.0 0.00 0.00 0.00 28 1018.7
20181218190500 55 174 0.0 0.0 0.00 0.00 0.00 26 1018.6
20181218185959 54 85 0.0 0.0 0.00 0.00 0.00 27 1018.6
20181218185459 54 296 0.0 0.0 0.00 0.00 0.00 29 1018.6
20181218184959 54 321 0.0 0.0 0.00 0.00 0.00 29 1018.6
20181218184459 54 91 0.0 0.0 0.00 0.00 0.00 29 1018.8
20181218183959 54 16 0.0 0.0 0.00 0.00 0.00 28 1018.8
20181218183458 55 311 0.0 1.0 0.00 0.00 0.00 29 1018.8
20181218182955 55 12 0.0 1.0 0.00 0.00 0.00 30 1018.7
20181218182456 55 154 0.0 0.0 0.00 0.00 0.00 29 1018.7
20181218181956 55 302 0.0 0.0 0.00 0.00 0.00 30 1018.8
20181218181456 55 310 0.0 0.0 0.00 0.00 0.00 29 1019.0
20181218180956 55 343 0.0 0.0 0.00 0.00 0.00 30 1019.0
20181218180457 55 81 0.0 0.0 0.00 0.00 0.00 31 1019.0
20181218175956 55 173 0.0 0.0 0.00 0.00 0.00 32 1018.9
20181218175457 55 316 0.0 0.0 0.00 0.00 0.00 29 1019.0
20181218174955 55 304 0.0 0.0 0.00 0.00 0.00 30 1019.0
20181218174457 55 343 0.0 0.0 0.00 0.00 0.00 31 1019.1
20181218173956 55 310 0.0 0.0 0.00 0.00 0.00 32 1019.2
20181218173457 55 42 0.0 0.0 0.00 0.00 0.00 33 1019.3
20181218172955 54 179 0.0 1.0 0.00 0.00 0.00 34 1019.3
20181218172457 54 79 0.0 1.0 0.00 0.00 0.00 37 1019.4
20181218171956 54 48 0.0 0.0 0.00 0.00 0.00 35 1019.4
20181218171456 53 57 0.0 0.0 0.00 0.00 0.00 36 1019.4
20181218170955 54 83 0.0 0.0 0.00 0.00 0.00 34 1019.6
20181218170456 53 323 0.0 0.0 0.00 0.00 0.00 36 1019.7
20181218165956 53 268 0.0 0.0 0.00 0.00 0.00 35 1019.6
20181218165457 53 307 0.0 0.0 0.00 0.00 0.00 38 1019.6
20181218164957 53 299 0.0 0.0 0.00 0.00 0.00 36 1019.7
20181218164455 53 321 0.0 0.0 0.00 0.00 0.00 37 1019.7
20181218163954 53 97 0.0 0.0 0.00 0.00 0.00 37 1019.7
20181218163453 53 67 0.0 0.0 0.00 0.00 0.00 38 1019.8
20181218162953 53 320 0.0 0.0 0.00 0.00 0.00 38 1019.9
20181218162451 53 275 0.0 0.0 0.00 0.00 0.00 38 1019.9
20181218161951 53 352 0.0 0.0 0.00 0.00 0.00 39 1020.1
20181218161453 52 93 0.0 0.0 0.00 0.00 0.00 37 1020.1
20181218160952 52 327 0.0 0.0 0.00 0.00 0.00 38 1020.2
20181218160453 52 129 0.0 0.0 0.00 0.00 0.00 41 1020.2
20181218155951 52 323 0.0 0.0 0.00 0.00 0.00 42 1020.2
20181218155452 52 352 0.0 0.0 0.00 0.00 0.00 44 1020.2
20181218154952 51 71 0.0 0.0 0.00 0.00 0.00 46 1020.3
20181218154449 51 84 0.0 0.0 0.00 0.00 0.00 44 1020.4
20181218153951 51 44 0.0 0.0 0.00 0.00 0.00 43 1020.4
20181218153450 51 94 0.0 0.0 0.00 0.00 0.00 45 1020.4
20181218152950 50 338 0.0 0.0 0.00 0.00 0.00 45 1020.4
20181218152449 50 98 0.0 0.0 0.00 0.00 0.00 45 1020.4
20181218151950 50 359 0.0 0.0 0.00 0.00 0.00 47 1020.5
20181218151451 50 37 0.0 0.0 0.00 0.00 0.00 47 1020.6
20181218150949 50 42 0.0 0.0 0.00 0.00 0.00 48 1020.5
20181218150449 49 81 0.0 0.0 0.00 0.00 0.00 51 1020.5
20181218145948 49 64 0.0 0.0 0.00 0.00 0.00 51 1020.5
20181218145447 48 3 0.0 0.0 0.00 0.00 0.00 50 1020.5
20181218144947 48 42 0.0 0.0 0.00 0.00 0.00 51 1020.5
20181218144447 47 331 0.0 0.0 0.00 0.00 0.00 52 1020.4
20181218143946 47 48 0.0 0.0 0.00 0.00 0.00 55 1020.5
20181218143447 46 37 0.0 0.0 0.00 0.00 0.00 55 1020.4
20181218142946 46 275 0.0 0.0 0.00 0.00 0.00 57 1020.4
20181218142445 45 317 0.0 0.0 0.00 0.00 0.00 58 1020.2
20181218141945 44 29 0.0 0.0 0.00 0.00 0.00 60 1020.0
20181218141445 43 311 0.0 0.0 0.00 0.00 0.00 62 1019.9
20181218140945 42 56 0.0 0.0 0.00 0.00 0.00 61 1019.9
20181218140445 42 86 0.0 0.0 0.00 0.00 0.00 63 1019.7
20181218135945 41 280 0.0 1.0 0.00 0.00 0.00 65 1019.6
20181218135446 41 272 0.0 1.0 0.00 0.00 0.00 66 1019.6
20181218134945 40 331 0.0 0.0 0.00 0.00 0.00 68 1019.5
20181218134443 40 338 0.0 0.0 0.00 0.00 0.00 69 1019.4
20181218133944 40 44 0.0 0.0 0.00 0.00 0.00 71 1019.3
20181218133444 39 80 0.0 0.0 0.00 0.00 0.00 72 1019.2
20181218132944 39 5 0.0 0.0 0.00 0.00 0.00 71 1019.1
20181218132444 38 34 0.0 0.0 0.00 0.00 0.00 73 1019.0
20181218131942 38 34 0.0 0.0 0.00 0.00 0.00 73 1018.9
20181218131444 37 34 0.0 0.0 0.00 0.00 0.00 73 1018.7
20181218130943 37 34 0.0 0.0 0.00 0.00 0.00 74 1018.6
20181218130443 36 34 0.0 0.0 0.00 0.00 0.00 75 1018.5
20181218125943 36 34 0.0 0.0 0.00 0.00 0.00 76 1018.4
20181218125441 35 59 0.0 0.0 0.00 0.00 0.00 78 1018.4
20181218124943 35 95 0.0 0.0 0.00 0.00 0.00 81 1018.2
20181218124441 34 95 0.0 0.0 0.00 0.00 0.00 82 1018.2
20181218123942 34 95 0.0 0.0 0.00 0.00 0.00 82 1018.2
20181218123441 34 95 0.0 0.0 0.00 0.00 0.00 84 1018.1
20181218122942 34 95 0.0 0.0 0.00 0.00 0.00 85 1018.0
20181218122442 34 95 0.0 0.0 0.00 0.00 0.00 86 1017.9
20181218121941 34 92 0.0 0.0 0.00 0.00 0.00 86 1017.9
20181218121439 34 90 0.0 0.0 0.00 0.00 0.00 86 1017.7
20181218120940 34 90 0.0 0.0 0.00 0.00 0.00 87 1017.6
20181218120437 34 90 0.0 0.0 0.00 0.00 0.00 86 1017.6
20181218115936 34 90 0.0 0.0 0.00 0.00 0.00 86 1017.5
20181218115437 34 69 0.0 0.0 0.00 0.00 0.00 85 1017.4
20181218114938 34 69 0.0 0.0 0.00 0.00 0.00 85 1017.3
20181218114438 34 69 0.0 0.0 0.00 0.00 0.00 86 1017.3
20181218113937 34 69 0.0 0.0 0.00 0.00 0.00 86 1017.3
20181218113438 34 69 0.0 0.0 0.00 0.00 0.00 85 1017.3
20181218112937 34 69 0.0 0.0 0.00 0.00 0.00 86 1017.2
20181218112435 34 69 0.0 0.0 0.00 0.00 0.00 86 1017.2
20181218111936 34 69 0.0 0.0 0.00 0.00 0.00 86 1017.1
20181218111433 34 69 0.0 0.0 0.00 0.00 0.00 86 1017.2
20181218110932 34 69 0.0 0.0 0.00 0.00 0.00 87 1017.1
20181218110433 34 69 0.0 0.0 0.00 0.00 0.00 87 1017.1
20181218105933 34 69 0.0 0.0 0.00 0.00 0.00 87 1016.8
20181218105433 33 69 0.0 0.0 0.00 0.00 0.00 87 1016.7
20181218104933 33 67 0.0 0.0 0.00 0.00 0.00 87 1016.6
20181218104434 33 67 0.0 0.0 0.00 0.00 0.00 87 1016.4
20181218103932 33 67 0.0 0.0 0.00 0.00 0.00 87 1016.3
20181218103432 33 67 0.0 0.0 0.00 0.00 0.00 87 1016.3
20181218102933 33 63 0.0 0.0 0.00 0.00 0.00 87 1016.2
20181218102431 34 63 0.0 0.0 0.00 0.00 0.00 87 1016.1
20181218101931 34 63 0.0 0.0 0.00 0.00 0.00 87 1016.0
20181218101432 34 63 0.0 0.0 0.00 0.00 0.00 86 1016.0
20181218100930 34 63 0.0 0.0 0.00 0.00 0.00 86 1016.0
20181218100432 34 63 0.0 0.0 0.00 0.00 0.00 86 1016.0
20181218095932 34 63 0.0 0.0 0.00 0.00 0.00 85 1016.0
20181218095431 35 63 0.0 0.0 0.00 0.00 0.00 85 1016.0
20181218094931 35 63 0.0 0.0 0.00 0.00 0.00 84 1015.9
20181218094432 35 63 0.0 0.0 0.00 0.00 0.00 84 1016.0
20181218093930 35 63 0.0 0.0 0.00 0.00 0.00 84 1016.1
20181218093432 35 63 0.0 0.0 0.00 0.00 0.00 84 1016.1
20181218092930 35 63 0.0 0.0 0.00 0.00 0.00 84 1016.0
20181218092430 35 63 0.0 0.0 0.00 0.00 0.00 84 1016.2
20181218091930 35 63 0.0 0.0 0.00 0.00 0.00 84 1016.2
20181218091432 35 63 0.0 0.0 0.00 0.00 0.00 84 1016.3
20181218090930 35 63 0.0 0.0 0.00 0.00 0.00 84 1016.2
20181218090430 35 63 0.0 0.0 0.00 0.00 0.00 84 1016.2
20181218085930 35 63 0.0 0.0 0.00 0.00 0.00 84 1016.2
20181218085431 35 63 0.0 0.0 0.00 0.00 0.00 84 1016.2
20181218084931 35 57 0.0 0.0 0.00 0.00 0.00 84 1016.1
20181218084431 35 57 0.0 0.0 0.00 0.00 0.00 84 1016.0
20181218083930 35 57 0.0 0.0 0.00 0.00 0.00 84 1016.0
20181218083431 35 57 0.0 0.0 0.00 0.00 0.00 84 1015.9
20181218082930 35 57 0.0 0.0 0.00 0.00 0.00 84 1015.9
20181218082432 35 57 0.0 0.0 0.00 0.00 0.00 84 1015.9
20181218081931 35 57 0.0 0.0 0.00 0.00 0.00 85 1015.9
20181218081432 35 57 0.0 0.0 0.00 0.00 0.00 84 1015.9
20181218080931 35 57 0.0 0.0 0.00 0.00 0.00 84 1016.0
20181218080432 36 57 0.0 0.0 0.00 0.00 0.00 84 1016.0
20181218075930 36 57 0.0 0.0 0.00 0.00 0.00 84 1016.0
20181218075430 36 57 0.0 0.0 0.00 0.00 0.00 84 1016.0
20181218074929 36 57 0.0 0.0 0.00 0.00 0.00 84 1016.0
20181218074429 36 57 0.0 0.0 0.00 0.00 0.00 83 1016.1
20181218073930 36 57 0.0 0.0 0.00 0.00 0.00 83 1016.1
20181218073428 36 57 0.0 0.0 0.00 0.00 0.00 83 1016.1
20181218072929 36 57 0.0 0.0 0.00 0.00 0.00 83 1016.2
20181218072429 36 57 0.0 0.0 0.00 0.00 0.00 83 1016.1
20181218071928 36 57 0.0 0.0 0.00 0.00 0.00 83 1016.2
20181218071429 36 57 0.0 0.0 0.00 0.00 0.00 83 1016.1
20181218070928 36 57 0.0 0.0 0.00 0.00 0.00 82 1016.0
20181218070428 36 57 0.0 0.0 0.00 0.00 0.00 83 1016.1
20181218065927 36 57 0.0 0.0 0.00 0.00 0.00 83 1016.1
20181218065424 36 57 0.0 0.0 0.00 0.00 0.00 82 1016.1
20181218064924 36 57 0.0 0.0 0.00 0.00 0.00 83 1015.9
20181218064425 36 57 0.0 0.0 0.00 0.00 0.00 83 1015.8
20181218063925 36 57 0.0 0.0 0.00 0.00 0.00 83 1015.9
20181218063425 36 57 0.0 0.0 0.00 0.00 0.00 83 1015.9
20181218062926 36 57 0.0 0.0 0.00 0.00 0.00 83 1015.8
20181218062425 36 57 0.0 0.0 0.00 0.00 0.00 83 1015.7
20181218061925 36 57 0.0 0.0 0.00 0.00 0.00 83 1015.8
20181218061423 36 57 0.0 0.0 0.00 0.00 0.00 83 1015.8
20181218060924 36 57 0.0 0.0 0.00 0.00 0.00 83 1015.9
20181218060422 36 57 0.0 0.0 0.00 0.00 0.00 83 1016.0
20181218055922 36 57 0.0 0.0 0.00 0.00 0.00 83 1016.0
20181218055422 37 57 0.0 0.0 0.00 0.00 0.00 82 1016.2
20181218054922 37 57 0.0 0.0 0.00 0.00 0.00 82 1016.1
20181218054422 37 57 0.0 0.0 0.00 0.00 0.00 82 1016.2
20181218053922 37 57 0.0 0.0 0.00 0.00 0.00 81 1016.1
20181218053422 37 57 0.0 0.0 0.00 0.00 0.00 81 1016.2
20181218052923 37 57 0.0 0.0 0.00 0.00 0.00 80 1016.2
20181218052420 37 57 0.0 0.0 0.00 0.00 0.00 79 1016.2
20181218051920 37 57 0.0 0.0 0.00 0.00 0.00 80 1016.2
20181218051420 37 57 0.0 0.0 0.00 0.00 0.00 80 1016.2
20181218050920 37 57 0.0 0.0 0.00 0.00 0.00 80 1016.2
20181218050421 37 57 0.0 0.0 0.00 0.00 0.00 79 1016.2
20181218045917 37 57 0.0 0.0 0.00 0.00 0.00 79 1016.3
20181218045416 37 57 0.0 0.0 0.00 0.00 0.00 79 1016.1
20181218044916 38 57 0.0 0.0 0.00 0.00 0.00 78 1016.2
20181218044415 38 57 0.0 0.0 0.00 0.00 0.00 78 1016.3
20181218043916 38 57 0.0 0.0 0.00 0.00 0.00 78 1016.3
20181218043416 38 57 0.0 0.0 0.00 0.00 0.00 79 1016.4
20181218042916 38 57 0.0 0.0 0.00 0.00 0.00 79 1016.4
20181218042415 38 57 0.0 0.0 0.00 0.00 0.00 78 1016.4
20181218041914 38 57 0.0 0.0 0.00 0.00 0.00 78 1016.3
20181218041414 38 57 0.0 0.0 0.00 0.00 0.00 78 1016.3
20181218040915 38 57 0.0 0.0 0.00 0.00 0.00 77 1016.3
20181218040414 39 57 0.0 0.0 0.00 0.00 0.00 77 1016.2
20181218035910 39 57 0.0 0.0 0.00 0.00 0.00 77 1016.1
20181218035412 39 57 0.0 0.0 0.00 0.00 0.00 77 1016.1
20181218034912 39 57 0.0 0.0 0.00 0.00 0.00 78 1016.1
20181218034411 39 57 0.0 0.0 0.00 0.00 0.00 79 1016.0
20181218033912 38 57 0.0 0.0 0.00 0.00 0.00 79 1016.1
20181218033411 38 57 0.0 0.0 0.00 0.00 0.00 79 1016.0
20181218032910 38 57 0.0 0.0 0.00 0.00 0.00 79 1016.0
20181218032410 38 57 0.0 0.0 0.00 0.00 0.00 78 1016.0
20181218031909 38 57 0.0 0.0 0.00 0.00 0.00 78 1016.1
20181218031409 39 57 0.0 0.0 0.00 0.00 0.00 80 1016.1
20181218030909 39 57 0.0 0.0 0.00 0.00 0.00 80 1016.1
20181218030409 39 57 0.0 0.0 0.00 0.00 0.00 80 1016.0
20181218025910 39 57 0.0 0.0 0.00 0.00 0.00 79 1016.1
20181218025409 39 57 0.0 0.0 0.00 0.00 0.00 78 1016.1
20181218024910 40 57 0.0 0.0 0.00 0.00 0.00 77 1016.1
20181218024409 40 57 0.0 0.0 0.00 0.00 0.00 77 1016.1
20181218023911 40 57 0.0 0.0 0.00 0.00 0.00 77 1016.2
20181218023410 40 57 0.0 0.0 0.00 0.00 0.00 76 1016.2
20181218022909 40 57 0.0 0.0 0.00 0.00 0.00 75 1016.2
20181218022409 40 57 0.0 0.0 0.00 0.00 0.00 75 1016.1
20181218021907 40 57 0.0 0.0 0.00 0.00 0.00 75 1016.0
20181218021408 40 57 0.0 0.0 0.00 0.00 0.00 75 1016.0
20181218020908 40 57 0.0 0.0 0.00 0.00 0.00 74 1016.0
20181218020407 41 57 0.0 0.0 0.00 0.00 0.00 75 1016.0
20181218015908 41 57 0.0 0.0 0.00 0.00 0.00 76 1016.0
20181218015407 41 57 0.0 0.0 0.00 0.00 0.00 76 1016.0
20181218014909 41 57 0.0 0.0 0.00 0.00 0.00 77 1015.9
20181218014408 42 57 0.0 0.0 0.00 0.00 0.00 76 1015.9
20181218013906 42 57 0.0 0.0 0.00 0.00 0.00 75 1015.8